Time,TemperatureF,DewpointF,PressureIn,WindDirection,WindDirectionDegrees,WindSpeedMPH,WindSpeedGustMPH,Humidity,HourlyPrecipIn,Conditions,Clouds,dailyrainin,SoftwareType,DateUTC
2013-09-19 00:01:00,54.0,45.0,30.06,WSW,249,4.0,10.0,71,0.00,,,0.00,,2013-09-19 04:01:00,
2013-09-19 00:25:00,53.0,46.0,30.06,SW,227,4.0,6.0,76,0.00,,,0.00,,2013-09-19 04:25:00,
2013-09-19 00:54:00,53.0,46.0,30.06,West,266,5.0,8.0,78,0.00,,,0.00,,2013-09-19 04:54:00,
2013-09-19 01:13:00,53.0,47.0,30.06,WSW,251,4.0,8.0,79,0.00,,,0.00,,2013-09-19 05:13:00,
2013-09-19 01:23:00,53.0,47.0,30.06,West,259,3.0,7.0,79,0.00,,,0.00,,2013-09-19 05:23:00,
2013-09-19 01:52:00,52.0,47.0,30.06,West,273,3.0,7.0,83,0.00,,,0.00,,2013-09-19 05:52:00,
2013-09-19 02:12:00,52.0,47.0,30.06,West,261,4.0,7.0,83,0.00,,,0.00,,2013-09-19 06:12:00,
2013-09-19 02:22:00,52.0,48.0,30.06,West,268,3.0,6.0,85,0.00,,,0.00,,2013-09-19 06:22:00,
2013-09-19 02:52:00,51.0,47.0,30.05,WSW,258,4.0,7.0,86,0.00,,,0.00,,2013-09-19 06:52:00,
2013-09-19 03:12:00,51.0,48.0,30.05,West,265,3.0,6.0,88,0.00,,,0.00,,2013-09-19 07:12:00,
2013-09-19 03:22:00,50.0,47.0,30.06,WNW,298,2.0,5.0,89,0.00,,,0.00,,2013-09-19 07:22:00,
2013-09-19 03:52:00,48.0,46.0,30.06,WNW,289,3.0,5.0,92,0.00,,,0.00,,2013-09-19 07:52:00,
2013-09-19 04:22:00,49.0,46.0,30.06,NNW,333,7.0,10.0,89,0.00,,,0.00,,2013-09-19 08:22:00,
2013-09-19 04:52:00,49.0,46.0,30.06,NW,318,3.0,5.0,89,0.00,,,0.00,,2013-09-19 08:52:00,
2013-09-19 05:11:00,49.0,45.0,30.06,NNW,327,2.0,5.0,87,0.00,,,0.00,,2013-09-19 09:11:00,
2013-09-19 05:21:00,48.0,45.0,30.07,NNW,335,1.0,3.0,88,0.00,,,0.00,,2013-09-19 09:21:00,
2013-09-19 05:53:00,48.0,45.0,30.06,NW,326,2.0,4.0,89,0.00,,,0.00,,2013-09-19 09:53:00,
2013-09-19 06:12:00,46.0,44.0,30.06,NW,318,2.0,4.0,91,0.00,,,0.00,,2013-09-19 10:12:00,
2013-09-19 06:24:00,46.0,44.0,30.06,NW,305,5.0,8.0,92,0.00,,,0.00,,2013-09-19 10:24:00,
2013-09-19 06:52:00,46.0,44.0,30.07,ENE,63,1.0,2.0,92,0.00,,,0.00,,2013-09-19 10:52:00,
2013-09-19 07:12:00,45.0,43.0,30.07,NNW,336,2.0,6.0,92,0.00,,,0.00,,2013-09-19 11:12:00,
2013-09-19 07:22:00,46.0,44.0,30.08,NNE,20,3.0,6.0,94,0.00,,,0.00,,2013-09-19 11:22:00,
2013-09-19 07:52:00,50.0,46.0,30.08,NNW,336,1.0,3.0,87,0.00,,,0.00,,2013-09-19 11:52:00,
2013-09-19 08:11:00,53.0,47.0,30.08,NNW,331,1.0,4.0,81,0.00,,,0.00,,2013-09-19 12:11:00,
2013-09-19 08:22:00,55.0,48.0,30.08,NW,321,2.0,5.0,76,0.00,,,0.00,,2013-09-19 12:22:00,
2013-09-19 08:52:00,59.0,50.0,30.08,NW,311,2.0,5.0,71,0.00,,,0.00,,2013-09-19 12:52:00,
2013-09-19 09:11:00,60.0,50.0,30.08,WNW,286,3.0,8.0,69,0.00,,,0.00,,2013-09-19 13:11:00,
2013-09-19 09:22:00,62.0,50.0,30.08,NW,310,4.0,7.0,65,0.00,,,0.00,,2013-09-19 13:22:00,
2013-09-19 09:52:00,64.0,52.0,30.09,WNW,298,3.0,10.0,64,0.00,,,0.00,,2013-09-19 13:52:00,
2013-09-19 10:22:00,66.0,50.0,30.08,West,271,4.0,9.0,57,0.00,,,0.00,,2013-09-19 14:22:00,
2013-09-19 10:52:00,68.0,53.0,30.07,North,349,4.0,9.0,59,0.00,,,0.00,,2013-09-19 14:52:00,
2013-09-19 11:22:00,67.0,51.0,30.07,WSW,258,4.0,9.0,56,0.00,,,0.00,,2013-09-19 15:22:00,
2013-09-19 11:53:00,67.0,50.0,30.06,WSW,244,5.0,9.0,55,0.00,,,0.00,,2013-09-19 15:53:00,
2013-09-19 12:04:00,67.0,50.0,30.06,WSW,244,5.0,9.0,55,0.00,,,0.00,,2013-09-19 16:04:00,
2013-09-19 12:24:00,68.0,50.0,30.06,West,265,7.0,11.0,53,0.00,,,0.00,,2013-09-19 16:24:00,
2013-09-19 12:52:00,70.0,51.0,30.06,WNW,294,6.0,11.0,51,0.00,,,0.00,,2013-09-19 16:52:00,
2013-09-19 13:12:00,70.0,50.0,30.05,West,263,8.0,13.0,50,0.00,,,0.00,,2013-09-19 17:12:00,
2013-09-19 13:23:00,70.0,50.0,30.04,SW,236,3.0,10.0,50,0.00,,,0.00,,2013-09-19 17:23:00,
2013-09-19 13:53:00,70.0,50.0,30.04,West,262,9.0,14.0,50,0.00,,,0.00,,2013-09-19 17:53:00,
2013-09-19 14:11:00,71.0,52.0,30.03,WSW,254,10.0,14.0,52,0.00,,,0.00,,2013-09-19 18:11:00,
2013-09-19 14:22:00,71.0,52.0,30.03,West,265,7.0,13.0,51,0.00,,,0.00,,2013-09-19 18:22:00,
2013-09-19 14:52:00,71.0,49.0,30.02,SW,234,5.0,11.0,45,0.00,,,0.00,,2013-09-19 18:52:00,
2013-09-19 15:12:00,71.0,49.0,30.02,West,260,7.0,10.0,45,0.00,,,0.00,,2013-09-19 19:12:00,
2013-09-19 15:22:00,72.0,49.0,30.01,NW,305,6.0,11.0,45,0.00,,,0.00,,2013-09-19 19:22:00,
2013-09-19 15:52:00,72.0,49.0,30.01,West,267,4.0,9.0,45,0.00,,,0.00,,2013-09-19 19:52:00,
2013-09-19 16:12:00,72.0,50.0,30.01,WNW,292,5.0,8.0,46,0.00,,,0.00,,2013-09-19 20:12:00,
2013-09-19 16:22:00,71.0,51.0,30.01,SSW,192,5.0,9.0,50,0.00,,,0.00,,2013-09-19 20:22:00,
2013-09-19 16:42:00,70.0,52.0,30.01,SSW,205,3.0,7.0,53,0.00,,,0.00,,2013-09-19 20:42:00,
2013-09-19 16:52:00,70.0,49.0,30.00,SSE,148,3.0,10.0,48,0.00,,,0.00,,2013-09-19 20:52:00,
2013-09-19 17:12:00,69.0,47.0,30.00,SSW,199,6.0,11.0,46,0.00,,,0.00,,2013-09-19 21:12:00,
2013-09-19 17:22:00,69.0,49.0,29.99,South,180,3.0,9.0,49,0.00,,,0.00,,2013-09-19 21:22:00,
2013-09-19 17:44:00,68.0,50.0,29.99,SSW,200,4.0,7.0,52,0.00,,,0.00,,2013-09-19 21:44:00,
2013-09-19 17:55:00,67.0,50.0,29.99,SW,215,5.0,10.0,54,0.00,,,0.00,,2013-09-19 21:55:00,
2013-09-19 18:04:00,67.0,50.0,29.99,SW,215,5.0,10.0,54,0.00,,,0.00,,2013-09-19 22:04:00,
2013-09-19 18:24:00,65.0,51.0,29.99,SW,215,4.0,7.0,60,0.00,,,0.00,,2013-09-19 22:24:00,
2013-09-19 18:53:00,63.0,49.0,29.99,West,273,3.0,8.0,60,0.00,,,0.00,,2013-09-19 22:53:00,
2013-09-19 19:23:00,61.0,46.0,30.00,WSW,244,4.0,10.0,58,0.00,,,0.00,,2013-09-19 23:23:00,
2013-09-19 19:53:00,60.0,46.0,30.01,SW,234,5.0,11.0,59,0.00,,,0.00,,2013-09-19 23:53:00,
2013-09-19 20:22:00,60.0,46.0,30.01,West,261,7.0,12.0,60,0.00,,,0.00,,2013-09-20 00:22:00,
2013-09-19 20:52:00,59.0,46.0,30.01,West,265,6.0,11.0,62,0.00,,,0.00,,2013-09-20 00:52:00,
2013-09-19 21:12:00,58.0,46.0,30.02,West,264,4.0,8.0,64,0.00,,,0.00,,2013-09-20 01:12:00,
2013-09-19 21:22:00,58.0,46.0,30.02,West,261,6.0,10.0,65,0.00,,,0.00,,2013-09-20 01:22:00,
2013-09-19 21:42:00,58.0,47.0,30.02,WSW,243,6.0,10.0,66,0.00,,,0.00,,2013-09-20 01:42:00,
2013-09-19 21:52:00,58.0,46.0,30.02,WSW,244,7.0,10.0,65,0.00,,,0.00,,2013-09-20 01:52:00,
2013-09-19 22:12:00,59.0,47.0,30.02,West,268,6.0,11.0,64,0.00,,,0.00,,2013-09-20 02:12:00,
2013-09-19 22:22:00,59.0,46.0,30.02,SW,227,6.0,11.0,63,0.00,,,0.00,,2013-09-20 02:22:00,
2013-09-19 22:52:00,58.0,45.0,30.03,WSW,257,4.0,8.0,63,0.00,,,0.00,,2013-09-20 02:52:00,
2013-09-19 23:12:00,57.0,45.0,30.03,SW,227,4.0,7.0,65,0.00,,,0.00,,2013-09-20 03:12:00,
2013-09-19 23:23:00,56.0,46.0,30.03,WSW,245,6.0,9.0,68,0.00,,,0.00,,2013-09-20 03:23:00,
2013-09-19 23:56:00,57.0,46.0,30.02,WSW,244,3.0,8.0,67,0.00,,,0.00,,2013-09-20 03:56:00,